Wind_Speed
34 34 34 35 35 35 35 36 37 35 34 32 31 30 29 28 27 26 25 24 23 22 22 23 25 26 28 28 29 29 31 32 33 35 37 39 43 45 45 42 42 43 44 44
35 35 36 36 35 35 35 36 36 36 34 33 31 31 30 29 29 28 26 25 24 23 24 25 26 26 27 29 30 30 31 32 33 34 36 37 40 44 45 44 43 44 42 43
37 37 38 37 36 36 36 36 36 36 35 33 31 30 30 30 29 28 27 26 24 24 24 25 26 27 27 27 29 30 31 33 33 34 35 35 38 41 42 42 43 44 44 43
39 39 39 38 37 37 37 36 36 36 35 34 33 31 31 30 29 28 28 27 27 26 26 27 27 27 27 28 29 30 31 32 33 34 35 35 36 40 39 39 40 42 44 44
40 40 41 38 38 38 38 36 36 36 35 34 33 32 31 30 30 29 29 28 27 26 26 26 27 28 28 28 28 29 30 31 33 34 35 35 36 36 39 39 37 39 41 42
41 42 42 40 39 39 39 38 37 36 35 35 33 32 30 30 30 30 29 29 28 27 26 26 26 27 27 28 28 29 30 31 32 33 34 35 35 36 37 37 36 36 38 41
42 43 43 41 40 40 40 39 37 36 36 36 34 33 32 31 31 31 31 29 29 28 26 26 26 27 26 27 27 28 29 30 31 31 32 34 34 35 36 37 37 36 37 40
42 43 42 41 41 41 41 40 38 37 37 36 35 33 32 32 31 32 31 30 29 29 27 26 26 26 26 26 26 27 29 29 30 31 32 33 33 34 35 36 38 38 38 38
44 43 42 42 42 42 41 40 39 38 38 37 36 34 33 33 32 32 31 30 29 29 28 26 25 25 26 25 26 26 27 28 29 30 31 32 32 32 34 36 37 38 37 37
44 43 42 42 42 42 42 41 39 38 38 37 36 35 34 33 33 32 31 29 29 29 27 26 26 26 25 25 26 26 26 27 28 28 30 31 31 31 32 35 37 38 37 36
43 42 43 42 42 42 41 40 39 38 38 37 37 36 34 33 32 32 30 29 28 27 26 26 26 26 26 25 26 27 27 28 28 28 29 30 31 32 31 33 35 37 37 36
43 43 44 42 41 41 40 39 39 39 38 38 37 36 34 33 32 31 30 28 28 27 26 25 25 26 27 27 27 27 27 28 29 29 29 30 32 32 32 33 35 36 37 36
44 44 44 42 40 40 40 39 39 39 38 37 36 35 34 32 31 29 28 28 27 26 25 25 25 26 26 26 27 27 28 28 29 30 30 31 32 32 32 33 34 35 36 36
43 43 42 42 41 40 40 39 39 38 37 36 35 34 33 31 29 28 28 27 26 25 24 24 24 26 27 27 27 27 27 28 29 29 29 30 31 32 33 34 35 35 35 35
43 43 42 42 41 40 40 39 38 37 36 35 34 32 31 30 28 27 27 26 25 25 24 23 24 25 27 27 27 28 27 27 28 29 30 30 30 30 32 33 34 35 35 36
42 42 42 41 41 40 39 37 36 35 34 33 32 31 30 29 28 27 27 26 25 25 24 23 23 24 26 27 27 27 26 27 28 28 29 30 30 30 31 32 33 34 34 35
41 41 41 40 39 37 36 35 35 34 33 32 31 31 30 29 28 27 27 27 26 25 25 24 24 24 25 26 26 27 27 27 27 27 28 29 30 30 30 32 33 34 34 34
40 39 39 38 37 35 35 34 34 33 33 32 32 31 30 30 28 27 27 26 26 25 25 25 24 23 24 25 26 26 27 27 27 26 27 28 29 30 30 31 32 33 33 33
39 38 38 37 36 35 34 34 34 33 33 33 32 30 30 29 28 27 27 26 26 26 25 25 25 23 23 25 26 26 26 26 26 26 26 27 27 29 30 31 32 32 32 32
37 37 37 36 35 35 34 34 34 33 32 32 31 31 30 29 28 27 27 26 26 26 26 25 24 24 24 24 25 25 25 25 26 25 25 26 26 28 29 30 31 31 31 31
36 36 36 35 34 34 34 34 33 32 32 31 30 30 29 28 28 27 26 26 26 26 25 25 24 24 24 24 24 24 25 25 25 25 24 25 26 28 29 29 29 29 29 30
35 35 34 34 33 33 32 32 32 31 30 29 29 29 28 27 26 27 26 26 25 26 25 24 24 23 23 22 22 23 24 24 24 24 24 25 26 27 28 29 29 29 29 30
34 34 33 32 32 31 30 30 30 30 29 28 28 27 26 26 26 26 25 25 24 24 24 23 23 22 22 22 22 22 23 24 23 23 24 25 25 26 28 29 29 29 28 29
33 32 31 31 30 30 29 29 29 29 28 27 27 26 26 25 25 25 24 24 23 23 22 21 22 22 22 21 22 22 23 24 24 24 25 25 25 25 27 28 28 28 27 28
32 31 31 30 30 29 29 28 28 28 27 26 25 25 25 25 25 24 23 22 22 21 21 20 20 21 21 21 21 21 22 23 24 24 25 25 26 25 26 27 27 27 28 28
32 31 31 30 30 29 28 28 27 27 26 25 25 24 24 23 23 22 21 21 20 20 19 19 20 20 20 19 19 19 20 21 22 23 24 24 25 25 26 26 25 26 27 27
32 31 30 30 29 28 28 27 26 26 25 24 23 23 22 21 21 20 20 19 19 19 18 18 18 18 18 18 19 19 19 20 21 22 22 23 24 25 25 24 25 25 26 26
Wind_Direction
317 318 318 319 320 319 318 318 318 319 318 315 310 309 307 305 302 299 296 292 284 276 268 264 263 261 253 250 248 245 240 237 237 235 233 232 229 226 225 226 227 228 227 229
313 314 314 316 318 317 316 316 316 317 317 313 309 307 307 304 302 298 294 290 283 274 269 265 263 261 255 251 248 246 242 240 239 237 234 233 231 228 227 227 229 228 228 230
310 311 312 315 317 315 314 314 314 315 315 312 309 306 305 302 300 296 293 288 282 274 272 269 265 260 256 253 250 247 244 241 239 237 234 232 229 228 228 229 229 227 226 228
308 309 311 315 314 314 313 313 313 312 312 311 309 306 303 302 299 295 291 287 280 274 271 270 265 259 255 254 251 248 244 241 239 237 234 231 229 230 228 229 229 228 227 227
307 308 311 313 313 312 312 311 310 309 310 308 307 305 301 298 297 295 292 288 281 277 273 267 263 258 256 254 251 247 245 242 240 237 235 233 231 231 230 229 229 230 230 229
305 307 310 313 311 311 310 309 309 308 308 307 306 302 299 296 294 293 291 287 282 278 275 270 264 259 256 253 249 246 244 243 242 240 236 233 232 231 232 230 230 232 232 231
304 305 307 310 310 309 308 310 308 307 307 307 305 303 298 295 293 290 289 285 282 279 278 272 265 261 257 252 248 244 243 243 241 238 237 233 231 232 232 232 232 233 233 233
302 304 308 308 306 306 306 306 306 306 306 306 304 302 298 294 291 289 287 284 282 279 277 274 267 262 256 252 248 244 243 243 243 240 239 236 233 232 233 232 232 232 233 232
301 303 305 305 303 303 303 304 304 304 304 303 302 300 296 292 290 288 286 284 281 278 277 274 267 260 256 251 247 245 245 244 243 242 241 240 236 234 233 232 232 231 231 231
299 302 301 301 301 301 301 301 301 301 301 301 301 298 295 292 288 286 285 283 281 278 275 271 267 262 255 251 248 247 247 245 244 244 243 240 237 235 234 233 233 230 228 229
297 299 298 299 299 299 299 299 298 299 299 299 300 297 293 290 287 284 282 281 279 277 273 268 263 259 254 252 249 248 247 246 244 244 242 240 237 236 235 232 232 232 231 231
295 296 296 298 298 297 298 299 297 297 298 298 298 295 292 290 286 282 280 278 276 274 273 267 261 258 255 252 251 249 247 246 244 243 241 240 238 238 235 232 231 232 232 233
293 294 295 297 296 296 297 298 296 297 297 297 296 295 291 289 285 282 279 277 275 273 271 266 261 256 254 252 251 250 248 246 244 243 242 241 240 239 235 232 230 230 230 229
291 292 293 294 295 296 297 297 296 296 295 295 295 294 291 288 284 280 277 275 274 272 270 267 263 257 254 252 251 251 249 247 244 242 241 239 238 238 236 232 229 227 226 226
291 291 292 293 295 295 295 295 295 294 294 294 293 293 291 287 283 278 275 273 271 270 269 267 264 259 255 253 252 251 251 249 246 243 241 238 237 239 236 231 228 224 224 225
290 291 292 293 293 294 293 294 293 293 292 292 292 291 290 286 282 279 274 270 268 268 266 264 264 261 255 253 252 251 251 250 247 243 241 238 236 236 234 230 227 224 222 222
290 291 292 293 293 293 292 293 293 293 291 290 290 289 288 285 280 277 273 268 267 266 265 265 266 263 259 254 252 251 251 250 247 244 240 237 235 234 231 228 224 221 220 221
290 291 291 292 291 291 291 292 292 292 291 290 289 288 287 285 279 275 272 268 265 264 265 266 266 264 260 255 254 252 249 247 245 242 239 235 232 230 227 225 221 220 220 220
289 290 291 292 291 291 291 291 291 291 291 289 288 288 287 284 279 275 271 267 265 263 262 265 265 263 261 258 254 250 247 245 243 240 236 232 230 227 224 222 220 220 221 222
288 290 291 291 291 290 290 290 291 290 289 288 286 286 284 282 278 274 271 268 265 263 261 263 263 261 261 258 252 246 243 241 240 237 233 229 226 225 222 220 219 219 220 221
289 290 291 291 290 290 289 290 290 290 288 287 286 285 282 280 277 274 271 267 265 263 261 261 261 260 259 255 250 242 239 237 235 232 230 228 226 224 221 219 217 217 218 219
289 290 290 290 290 289 289 289 290 289 287 286 285 284 281 278 276 274 272 268 264 262 261 260 257 255 254 250 245 240 237 235 234 232 230 227 224 223 219 215 216 216 217 219
289 290 290 290 290 289 288 289 290 290 287 285 284 282 279 276 277 276 273 267 264 262 258 256 255 251 248 245 243 239 235 233 231 228 224 222 220 219 216 216 216 216 216 216
289 289 289 290 291 289 289 289 290 290 287 284 283 282 280 278 277 277 274 267 262 259 254 252 251 248 246 244 240 235 233 230 227 223 222 220 217 216 216 214 213 214 214 213
288 288 288 289 289 289 288 288 288 288 287 284 284 283 282 279 276 274 271 266 261 257 253 250 248 246 243 240 235 231 229 227 224 222 220 218 216 215 214 211 212 212 212 211
286 286 286 286 286 286 287 287 286 286 286 285 284 284 282 280 277 273 268 263 258 254 250 247 244 240 236 232 227 223 222 221 219 216 214 214 214 213 212 211 211 209 209 209
285 285 285 285 285 285 286 286 285 285 285 283 283 282 281 278 274 271 264 259 253 248 246 241 235 230 228 223 217 215 216 214 212 210 209 211 211 208 208 207 206 204 204 205
Height
5625 5620 5615 5610 5605 5599 5592 5586 5581 5577 5571 5567 5562 5557 5554 5550 5547 5543 5541 5538 5536 5534 5533 5532 5532 5532 5532 5533 5535 5537 5539 5541 5545 5549 5554 5559 5565 5571 5578 5585 5591 5598 5605 5612
5618 5613 5607 5603 5599 5593 5587 5581 5575 5569 5566 5561 5556 5551 5547 5543 5540 5536 5534 5531 5529 5528 5526 5526 5526 5526 5526 5526 5528 5530 5532 5535 5538 5541 5546 5552 5557 5563 5569 5576 5582 5589 5595 5603
5609 5605 5599 5596 5592 5585 5580 5574 5569 5563 5560 5554 5549 5544 5540 5536 5532 5529 5526 5524 5522 5520 5519 5518 5518 5518 5519 5519 5521 5523 5525 5528 5531 5534 5539 5544 5549 5555 5561 5567 5573 5580 5587 5593
5599 5596 5591 5591 5583 5577 5571 5567 5561 5555 5551 5546 5542 5538 5533 5529 5525 5522 5519 5516 5514 5513 5512 5511 5510 5511 5511 5512 5514 5515 5518 5521 5524 5528 5532 5536 5541 5547 5553 5558 5564 5571 5578 5584
5589 5584 5582 5581 5574 5567 5562 5559 5554 5548 5543 5539 5534 5530 5527 5522 5518 5515 5511 5509 5507 5505 5504 5503 5502 5503 5503 5505 5506 5508 5510 5513 5517 5520 5525 5529 5533 5539 5544 5550 5556 5563 5569 5575
5579 5573 5571 5572 5564 5557 5553 5550 5546 5540 5535 5531 5526 5522 5520 5515 5511 5507 5504 5501 5499 5497 5496 5495 5495 5495 5495 5496 5498 5501 5503 5506 5509 5512 5516 5521 5525 5530 5536 5542 5548 5554 5560 5566
5569 5563 5561 5560 5554 5548 5544 5541 5535 5530 5526 5522 5517 5513 5510 5506 5503 5499 5496 5493 5491 5490 5489 5488 5487 5487 5488 5489 5491 5493 5496 5498 5501 5504 5508 5512 5517 5522 5527 5533 5539 5545 5551 5557
5560 5554 5554 5549 5543 5538 5534 5529 5525 5520 5516 5512 5508 5504 5501 5497 5494 5491 5488 5485 5483 5482 5481 5480 5480 5480 5480 5481 5483 5485 5488 5491 5494 5497 5500 5504 5509 5514 5519 5524 5530 5536 5542 5548
5551 5549 5544 5537 5532 5528 5523 5519 5515 5511 5507 5503 5499 5495 5492 5488 5485 5483 5480 5478 5475 5474 5473 5473 5472 5472 5473 5474 5476 5478 5481 5483 5486 5490 5493 5497 5501 5506 5510 5516 5521 5527 5533 5539
5539 5538 5533 5527 5522 5518 5513 5508 5505 5501 5497 5493 5489 5485 5482 5479 5476 5474 5471 5469 5467 5466 5465 5465 5464 5464 5465 5467 5469 5471 5473 5476 5479 5482 5485 5488 5492 5497 5502 5507 5513 5518 5524 5530
5527 5526 5520 5517 5512 5507 5503 5498 5495 5491 5487 5483 5479 5476 5472 5469 5467 5464 5463 5461 5459 5458 5457 5457 5457 5457 5458 5459 5461 5464 5466 5468 5471 5474 5477 5480 5484 5488 5493 5498 5503 5509 5515 5521
5516 5513 5508 5507 5502 5497 5493 5489 5485 5481 5477 5473 5469 5466 5463 5460 5457 5455 5453 5452 5451 5450 5449 5449 5449 5449 5450 5452 5454 5456 5458 5460 5463 5465 5469 5472 5476 5480 5484 5489 5494 5499 5505 5512
5504 5500 5496 5494 5490 5486 5482 5478 5474 5470 5466 5463 5459 5456 5453 5450 5448 5446 5444 5443 5442 5442 5441 5440 5441 5441 5442 5444 5446 5448 5450 5452 5454 5457 5460 5463 5467 5471 5475 5480 5485 5490 5496 5502
5491 5488 5485 5482 5479 5475 5471 5467 5464 5460 5456 5453 5449 5446 5443 5441 5439 5437 5436 5435 5434 5433 5432 5432 5432 5433 5434 5435 5437 5439 5441 5443 5445 5448 5451 5454 5458 5462 5466 5471 5477 5482 5487 5493
5479 5476 5473 5470 5467 5464 5460 5456 5453 5449 5446 5443 5440 5437 5434 5432 5430 5428 5427 5426 5425 5425 5424 5424 5424 5425 5425 5426 5428 5430 5432 5434 5437 5439 5442 5446 5449 5453 5458 5462 5468 5473 5479 5485
5467 5464 5461 5458 5455 5452 5449 5445 5442 5439 5435 5433 5430 5427 5424 5422 5421 5419 5418 5417 5417 5417 5416 5416 5416 5416 5416 5418 5419 5422 5424 5426 5428 5431 5434 5437 5441 5445 5449 5454 5459 5465 5471 5477
5455 5453 5450 5447 5444 5441 5438 5434 5431 5428 5425 5423 5420 5417 5415 5413 5411 5410 5409 5408 5408 5408 5407 5408 5408 5408 5408 5409 5411 5413 5415 5417 5419 5422 5425 5429 5432 5436 5441 5445 5451 5457 5463 5469
5443 5441 5438 5435 5432 5430 5427 5424 5421 5418 5415 5412 5410 5407 5405 5403 5402 5401 5400 5399 5399 5399 5399 5399 5399 5399 5400 5401 5402 5404 5406 5409 5411 5414 5417 5420 5424 5428 5433 5438 5443 5449 5455 5461
5431 5429 5426 5424 5421 5418 5416 5413 5410 5407 5404 5402 5399 5397 5396 5394 5392 5391 5390 5390 5390 5390 5390 5390 5390 5390 5391 5392 5393 5395 5398 5400 5403 5406 5408 5412 5416 5420 5425 5430 5436 5442 5448 5454
5420 5418 5415 5412 5410 5407 5405 5402 5399 5396 5394 5391 5389 5387 5386 5384 5382 5381 5381 5380 5380 5380 5380 5381 5381 5382 5382 5383 5384 5387 5389 5392 5395 5398 5401 5404 5408 5413 5417 5423 5428 5434 5440 5446
5409 5406 5404 5401 5399 5396 5394 5391 5388 5386 5383 5381 5379 5377 5375 5374 5372 5371 5371 5371 5370 5370 5371 5371 5372 5373 5374 5375 5376 5378 5381 5384 5387 5391 5394 5398 5402 5406 5411 5416 5422 5428 5433 5439
5397 5395 5393 5390 5388 5386 5383 5380 5378 5375 5373 5371 5368 5366 5365 5364 5363 5361 5360 5360 5360 5360 5361 5363 5363 5364 5365 5366 5368 5371 5374 5377 5380 5384 5387 5391 5395 5400 5405 5410 5416 5422 5427 5432
5386 5384 5382 5380 5377 5375 5373 5370 5368 5365 5363 5361 5359 5357 5355 5355 5353 5352 5351 5351 5351 5351 5352 5354 5355 5356 5357 5359 5361 5364 5367 5370 5373 5377 5381 5385 5389 5394 5399 5404 5410 5415 5420 5426
5376 5374 5372 5370 5367 5365 5363 5361 5358 5356 5354 5352 5350 5348 5347 5346 5345 5343 5343 5342 5342 5343 5344 5345 5346 5348 5350 5352 5354 5357 5360 5363 5367 5370 5374 5379 5383 5388 5393 5398 5403 5409 5414 5420
5365 5363 5362 5360 5358 5356 5354 5351 5349 5347 5345 5343 5341 5339 5338 5337 5336 5336 5335 5335 5335 5336 5337 5338 5339 5341 5343 5345 5347 5350 5353 5356 5360 5364 5368 5373 5377 5382 5386 5392 5397 5403 5408 5414
5355 5353 5352 5350 5348 5346 5344 5342 5340 5338 5336 5335 5333 5331 5330 5329 5328 5327 5327 5327 5328 5329 5330 5331 5332 5334 5336 5338 5341 5344 5347 5350 5354 5357 5362 5366 5371 5376 5381 5386 5391 5397 5403 5409
5344 5343 5341 5340 5338 5336 5335 5333 5331 5330 5328 5326 5325 5323 5322 5321 5320 5320 5320 5320 5321 5322 5323 5325 5326 5328 5330 5333 5335 5339 5342 5345 5349 5352 5356 5361 5365 5370 5376 5381 5386 5392 5398 5403